Regional Weather Roundup
Issued by NWS

Home | Current Version | Previous Version | Graphics & Text | Print | Product List | Glossary On
Versions: 1 2 3 4 5 6 7 8 9 10 11 12 13 14 15 16 17 18 19 20 21 22 23 24 25 26 27 28 29 30 31 32 33 34 35 36 37 38 39 40 41 42 43 44 45 46 47 48 49 50
000
ASUS43 KOAX 282302
RWRNE

WEATHER ROUNDUP FOR NEBRASKA
NATIONAL WEATHER SERVICE OMAHA NE
600 PM CDT TUE MAR 28 2017

NOTES: SATELLITE DATA IS BEING USED TO AUGMENT CLOUD COVER ABOVE
       12000 FEET.
       "FAIR" INDICATES FEW OR NO CLOUDS BELOW 12,000 FEET WITH NO
       SIGNIFICANT WEATHER AND/OR OBSTRUCTIONS TO VISIBILITY.

  * THESE STATIONS DO NOT REPORT WEATHER SUCH AS RAIN...SNOW OR FOG.

NEZ001>004-019>022-054>056-290000-
NEBRASKA PANHANDLE

CITY           SKY/WX    TMP DP  RH WIND       PRES   REMARKS
SCOTTSBLUFF    LGT RAIN  44  41  89 E17       30.01R FOG
ALLIANCE       LGT RAIN  42  40  92 E14       30.02R FOG
CHADRON        LGT RAIN  46  42  86 E9        30.05R
KIMBALL        LGT RAIN  43  43 100 E15G23    29.95R
SIDNEY         LGT RAIN  42  40  92 E20G28    29.95R FOG
$$

NEZ057>060-069>072-079>082-290000-
SOUTHWEST NEBRASKA

CITY           SKY/WX    TMP DP  RH WIND       PRES   REMARKS
NORTH PLATTE   RAIN      47  44  90 E9        30.04R FOG
IMPERIAL       LGT RAIN  43  41  93 E14       29.99S FOG
LEXINGTON      LGT RAIN  48  41  74 E10       30.04S
MCCOOK         LGT RAIN  47  46  97 CALM      30.00S FOG
OGALLALA       LGT RAIN  46  44  93 E9        30.01S
$$

NEZ005>010-023>029-035>040-094-290000-
NORTH CENTRAL NEBRASKA

CITY           SKY/WX    TMP DP  RH WIND       PRES   REMARKS
VALENTINE      LGT RAIN  46  42  86 E12       30.08R FOG
AINSWORTH      CLOUDY    48  43  84 NE12      30.07R
BROKEN BOW     CLOUDY    48  39  71 E9        30.06R
O`NEILL        CLOUDY    54  40  58 NE9       30.07R
ORD            CLOUDY    50  39  66 E9        30.06R
THEDFORD       LGT RAIN  46  42  87 E9        30.07R
$$

NEZ041-046>049-061>064-073>077-083>087-290000-
SOUTH CENTRAL NEBRASKA

CITY           SKY/WX    TMP DP  RH WIND       PRES   REMARKS
GRAND ISLAND   CLOUDY    47  41  80 E12       30.08R
AURORA         CLOUDY    47  42  82 E10       30.08R
HASTINGS       CLOUDY    48  40  73 NE15      30.06R
HEBRON         CLOUDY    50  41  71 E10       30.05R
HOLDREGE       LGT RAIN  49  41  75 NE13      30.02S
KEARNEY *      CLOUDY    48  37  66 E14       30.06R
YORK           CLOUDY    46  41  81 E14       30.08R
$$

NEZ011>018-030>034-042>045-290000-
NORTHEAST NEBRASKA

CITY           SKY/WX    TMP DP  RH WIND       PRES   REMARKS
NORFOLK        MOSUNNY   55  40  56 E12       30.05R
ALBION         CLOUDY    52  42  67 SE8       30.07R
BLAIR          CLOUDY    50  43  77 E8        30.08R
FREMONT        CLOUDY    49  42  75 E9        30.08R
TEKAMAH        CLOUDY    53  43  68 E12       30.08R
WAYNE          MOSUNNY   58  41  53 E9        30.05S
$$

NEZ050>053-065>068-078-088>093-290000-
SOUTHEAST NEBRASKA

CITY           SKY/WX    TMP DP  RH WIND       PRES   REMARKS
LINCOLN        CLOUDY    50  41  71 NE10      30.08R
OMAHA EPPLEY   CLOUDY    51  41  68 E8        30.08R
BEATRICE       CLOUDY    51  43  73 E8        30.06R
FALLS CITY     CLOUDY    52  46  80 E9        30.03R
NEBRASKA CITY  CLOUDY    50  40  68 NE8       30.07R
PLATTSMOUTH    CLOUDY    49  39  68 E8        30.07R
$$

NEZ044-045-051>053-067-290000-
OMAHA AREA

CITY           SKY/WX    TMP DP  RH WIND       PRES   REMARKS
OMAHA EPPLEY   CLOUDY    51  41  68 E8        30.08R
BLAIR          CLOUDY    50  43  77 E8        30.08R
FREMONT        CLOUDY    49  42  75 E9        30.08R
MILLARD        CLOUDY    51  44  75 E7        30.08S
OFFUTT AFB     CLOUDY    49  42  74 E7        30.07R
PLATTSMOUTH    CLOUDY    49  39  68 E8        30.07R
WAHOO          CLOUDY    48  42  80 E9        30.08R
$$



USA.gov is the U.S. government's official web portal to all federal, state and local government web resources and services.